CAPE
1184 1114 1173 1008 993 755 598 626 663 737 753 841 993 979 993 1203 1382 1551 1436 1102 855 426 113 4 0 0 0 91 514 735 889 861
1104 1105 1250 1328 1213 733 607 628 691 830 948 1086 1205 1097 1016 1045 1127 1254 1187 918 651 241 11 0 0 0 0 2 311 768 839 798
827 1023 1246 1465 1379 1020 629 612 720 922 1034 1061 881 822 869 1006 849 940 897 622 334 37 0 0 0 0 0 1 192 347 652 710
753 902 1181 1434 1203 1295 973 898 805 889 922 1172 968 1161 1068 959 851 535 415 223 12 0 0 0 0 0 0 12 335 460 626 480
1216 1019 1042 1183 940 1158 1113 1027 884 952 1180 1468 1355 1422 1234 980 878 490 424 0 0 0 0 0 0 0 0 11 120 382 283 214
1399 1189 1083 1182 913 935 1039 1040 1118 1208 1448 1685 1545 1418 1153 989 753 529 325 26 2 0 0 0 0 0 0 2 29 43 66 24
1856 1515 1360 1175 1343 1207 1196 1265 1255 1409 1526 1628 1668 1414 1203 944 633 406 73 0 0 0 0 0 0 0 0 0 6 5 0 0
2472 2090 1278 942 1211 1484 1487 1471 1376 1452 1461 1604 1543 1401 1135 1015 632 291 9 0 0 0 0 0 0 0 0 0 0 0 0 0
1939 1646 1350 1063 919 1282 1573 1499 1388 1495 1387 1400 1400 1330 1238 972 678 205 0 0 0 0 0 0 0 0 0 0 0 0 0 0
1944 1647 1598 1543 884 1007 1206 1486 1393 1375 1480 1346 1371 1368 1123 846 709 181 0 0 0 0 0 0 0 0 0 0 0 0 0 0
1818 1818 1582 1321 1337 1086 1173 1346 1381 1347 1379 1334 1296 1014 643 554 715 288 0 0 0 0 0 0 0 0 0 0 0 0 0 0
997 1183 1564 1177 1025 831 886 947 1070 1270 1366 1160 1205 762 284 272 367 330 0 0 0 0 0 0 0 0 0 0 0 0 0 2
68 338 598 905 1106 622 433 466 376 436 693 787 762 764 506 157 123 154 0 0 0 0 0 0 0 0 0 0 0 0 0 1
0 0 13 169 603 983 448 412 364 241 177 148 244 186 63 1 36 40 0 0 0 0 0 0 0 0 0 0 0 0 0 0
0 0 0 18 253 806 547 116 2 77 151 87 35 33 28 19 11 73 33 0 0 0 0 0 0 0 0 0 0 0 0 0
0 0 0 0 24 72 618 280 220 276 493 530 160 39 26 8 3 11 10 0 0 0 0 0 0 0 0 0 0 0 0 0
0 0 0 0 0 0 0 0 15 75 334 481 461 220 2 2 2 1 1 0 0 0 0 0 0 0 0 0 0 0 0 0
0 0 0 0 0 0 0 0 0 0 0 8 14 40 49 6 3 2 1 1 1 0 0 0 0 0 0 0 0 0 0 0
0 0 0 0 0 0 0 0 0 0 0 2 1 1 1 2 4 5 2 1 0 0 0 0 0 0 0 0 0 0 0 0
0 0 0 0 0 0 0 0 0 0 0 0 0 5 7 3 4 4 2 2 1 0 0 0 0 0 0 0 0 0 0 0
CIN
-270 -260 -236 -252 -223 -282 -325 -313 -287 -253 -245 -209 -159 -134 -115 -69 -23 -10 -5 -15 -29 -90 -169 -250 0 0 0 -164 -62 -36 0 -2
-250 -209 -181 -157 -169 -267 -277 -269 -251 -195 -150 -123 -89 -97 -98 -77 -43 -24 -20 -33 -79 -158 -256 0 0 0 0 -34 -61 -16 -1 -1
-286 -226 -171 -110 -106 -166 -238 -223 -198 -143 -88 -92 -134 -106 -98 -61 -75 -58 -38 -77 -147 -261 0 0 0 0 0 -39 -69 -8 -1 -1
-294 -272 -213 -137 -125 -101 -141 -135 -139 -92 -71 -47 -64 -44 -56 -54 -83 -136 -148 -202 -75 0 0 0 0 0 0 -173 -12 -2 0 -1
-245 -266 -225 -179 -164 -113 -97 -90 -94 -76 -54 -30 -31 -41 -64 -73 -90 -159 -164 0 0 0 0 0 0 0 0 -1 -68 -2 -7 -19
-216 -224 -230 -171 -126 -111 -70 -57 -41 -29 -28 -18 -22 -37 -75 -77 -104 -146 -184 -316 -190 0 0 0 0 0 0 0 -146 -100 -62 -1
-138 -178 -198 -209 -140 -109 -104 -74 -61 -24 -12 -9 -7 -21 -44 -61 -106 -154 -262 0 0 0 0 0 0 0 0 0 0 -1 0 0
-68 -102 -197 -241 -190 -102 -84 -69 -47 -54 -46 -14 -8 -5 -19 -27 -90 -165 -298 0 0 0 0 0 0 0 0 0 0 0 0 0
-114 -150 -171 -200 -205 -122 -74 -58 -58 -48 -52 -51 -52 -38 -23 -45 -64 -147 -4 0 0 0 0 0 0 0 0 0 0 0 0 0
-107 -141 -145 -140 -219 -171 -108 -44 -49 -43 -24 -34 -23 -20 -55 -103 -81 -180 0 0 0 0 0 0 0 0 0 0 0 0 0 0
-86 -95 -141 -182 -167 -178 -137 -83 -69 -54 -35 -29 -36 -62 -86 -105 -72 -121 0 0 0 0 0 0 0 0 0 0 0 0 0 0
-183 -161 -117 -162 -189 -219 -202 -173 -139 -83 -55 -78 -40 -86 -160 -149 -94 -99 -1 0 0 0 0 0 0 0 0 0 0 0 0 -2
-394 -281 -233 -183 -143 -220 -248 -237 -247 -216 -143 -107 -88 -71 -101 -158 -158 -117 -1 0 0 0 0 0 0 0 0 0 0 0 0 -2
0 0 -361 -293 -206 -155 -238 -240 -238 -254 -264 -263 -213 -189 -238 -1 -250 -197 -9 0 0 0 0 0 0 0 0 0 0 0 0 0
0 0 0 -284 -212 -112 -166 -286 -203 -307 -259 -316 -329 -304 -283 -266 -275 -181 -170 0 0 0 0 0 0 0 0 0 0 0 0 -1
0 0 0 0 -43 -162 -41 -94 -126 -137 -134 -137 -249 -347 -278 -304 -55 -250 -247 0 0 0 0 0 0 0 0 0 0 0 0 0
0 0 0 0 0 0 0 0 -191 -104 -42 -37 -68 -136 -4 0 0 0 0 0 0 0 0 0 0 0 0 0 0 0 0 0
0 0 0 0 0 0 0 0 0 0 0 -128 -151 -89 -111 0 0 0 0 0 0 0 0 0 0 0 0 0 0 0 0 0
0 0 0 0 0 0 0 0 0 0 0 -1 0 -1 -1 0 0 0 0 0 0 0 0 0 0 0 0 0 0 0 0 0
0 0 0 0 0 0 0 0 0 0 0 0 -1 -1 0 -2 0 0 0 0 0 0 0 0 0 0 0 0 0 0 0 0
Wind_Speed
7 8 7 5 5 6 5 4 4 3 4 5 6 7 8 9 10 10 10 11 11 11 11 11 11 11 11 10 9 8 9 9
7 7 7 6 3 3 3 3 3 2 2 3 4 5 6 7 8 9 9 9 10 10 11 11 11 11 11 10 10 9 9 10
6 7 7 7 3 2 2 2 2 1 0 1 2 4 4 5 6 7 8 9 9 10 10 11 12 12 11 10 8 9 10 12
6 7 7 6 4 2 3 2 3 3 2 2 2 5 3 4 6 6 7 8 9 9 10 10 9 11 11 10 8 11 10 11
3 4 5 4 2 1 2 3 4 4 4 5 5 6 7 3 4 3 5 5 7 7 8 8 9 10 10 9 11 9 10 11
1 1 0 2 3 3 4 4 4 6 7 6 7 7 7 5 4 4 4 4 5 5 6 8 8 9 8 9 8 9 9 11
3 1 1 1 3 2 4 5 6 8 11 10 9 9 8 7 7 6 5 5 4 4 6 6 7 7 7 7 7 8 9 11
8 6 4 3 3 3 5 5 7 10 9 9 10 11 11 10 10 9 8 7 6 6 6 5 5 6 6 6 7 8 9 10
11 10 8 6 6 6 8 8 8 9 9 10 10 12 14 12 13 14 15 14 11 9 8 7 6 5 5 6 7 8 9 9
12 11 8 8 9 10 10 11 12 12 12 12 12 12 13 14 15 15 15 15 15 15 12 10 8 7 6 6 7 7 8 8
17 15 12 13 13 13 14 16 17 16 15 15 14 15 16 18 17 17 14 14 14 14 13 12 11 11 10 9 8 7 7 7
17 18 17 15 15 15 15 16 18 19 20 18 18 18 17 17 20 18 16 16 15 15 15 15 14 12 11 12 12 11 9 8
16 16 17 17 14 14 16 17 18 20 21 23 23 22 21 20 20 20 18 18 17 15 15 15 17 15 14 16 16 16 14 11
17 18 19 19 15 15 17 19 20 21 22 23 24 24 24 23 22 22 21 20 20 18 17 18 19 16 19 18 21 21 19 16
19 20 20 21 18 16 18 20 22 23 24 25 25 24 24 25 25 26 25 23 22 22 21 20 21 21 22 22 23 27 19 19
20 21 22 23 24 22 21 24 28 28 28 28 28 27 27 26 27 27 28 27 27 24 23 24 24 25 24 25 28 25 24 25
23 24 24 25 26 26 27 30 32 32 33 34 32 30 28 28 28 29 30 30 30 29 27 28 28 28 28 27 28 26 25 25
27 28 28 28 29 30 30 32 34 36 36 36 33 32 32 32 31 31 32 33 34 34 32 31 31 32 31 30 31 30 30 30
29 30 32 32 33 34 34 36 37 37 37 37 37 35 32 33 33 34 34 35 36 36 37 37 36 35 35 35 34 32 29 28
33 35 37 37 37 37 37 37 37 38 37 38 38 38 38 35 34 35 36 36 37 37 38 39 39 39 37 35 33 33 31 30
Wind_Direction
98 126 135 135 134 132 132 129 124 114 97 83 75 74 75 76 78 69 64 57 52 57 55 54 49 35 17 18 28 36 16 17
100 118 129 141 153 152 142 141 139 133 93 76 65 52 59 65 66 59 60 50 47 51 48 42 35 33 29 13 9 12 11 11
105 121 134 139 148 192 202 193 202 200 220 349 26 23 44 53 41 42 35 29 32 38 39 33 27 26 30 36 44 20 358 350
128 131 134 142 148 157 182 208 227 242 254 277 313 334 5 34 20 18 19 15 17 24 29 34 46 29 31 42 49 9 5 351
126 130 131 141 166 249 222 244 240 232 229 268 286 307 318 338 3 19 22 32 32 41 36 40 23 18 16 20 10 25 10 3
312 148 152 301 309 287 286 272 255 267 265 256 279 291 302 305 317 335 346 3 7 24 21 13 14 13 15 8 14 9 4 0
299 257 208 256 193 281 274 272 271 278 281 271 272 281 290 294 300 306 314 326 337 349 355 5 6 9 12 16 14 4 1 353
302 294 291 291 254 251 292 283 276 281 276 273 268 282 289 291 295 295 296 300 306 314 325 340 354 0 358 1 357 352 348 349
305 299 294 290 286 284 291 296 289 284 276 270 264 270 283 286 292 294 294 295 296 298 302 310 320 334 343 344 343 340 340 341
304 302 296 298 296 293 290 295 295 292 287 283 272 269 274 278 285 288 289 290 289 290 290 291 295 301 310 319 324 328 333 334
299 302 298 296 298 295 293 294 293 294 293 288 284 277 278 280 280 284 282 281 281 281 282 282 284 287 295 303 308 312 313 317
308 307 308 305 299 295 295 294 295 293 293 289 290 286 280 275 280 277 277 275 275 274 274 276 278 279 284 290 296 301 301 301
331 327 320 314 309 302 299 295 294 293 292 290 289 289 285 279 275 276 275 273 269 264 266 266 271 271 274 283 287 289 290 289
336 335 331 325 316 308 307 306 303 300 297 292 290 288 285 281 275 272 271 271 267 264 260 265 266 258 268 271 278 282 280 282
333 333 335 335 333 321 313 309 306 303 299 295 291 286 285 281 276 273 270 266 264 261 257 256 260 258 263 272 278 279 269 277
333 334 334 333 329 321 314 309 306 304 302 299 296 290 286 283 279 274 269 265 265 260 256 255 256 258 257 258 278 281 276 278
326 327 328 329 326 323 316 310 307 308 304 300 298 295 290 286 281 277 270 266 263 260 256 255 254 259 258 256 268 270 273 278
321 320 320 322 321 319 316 312 307 304 303 302 302 299 295 290 286 282 276 271 268 263 258 256 256 258 260 259 260 262 269 274
317 317 316 316 315 313 312 311 309 306 304 302 299 298 297 294 289 285 280 275 272 267 261 259 255 257 257 259 261 262 269 267
314 313 312 312 311 310 308 308 307 306 304 302 300 298 297 297 292 287 284 280 274 270 265 261 258 256 255 255 258 261 265 265